Regional Weather Roundup
Issued by NWS

Home | Current Version | Previous Version | Graphics & Text | Print | Product List | Glossary On
Versions: 1 2 3 4 5 6 7 8 9 10 11 12 13 14 15 16 17 18 19 20 21 22 23 24 25 26 27
000
ASUS45 KCYS 180110
RWRWY

WYOMING REGIONAL WEATHER ROUNDUP
NATIONAL WEATHER SERVICE CHEYENNE WY
700 PM MDT THU AUG 17 2017

NOTE:  "FAIR" INDICATES FEW OR NO CLOUDS BELOW 12,000 FEET
WITH NO SIGNIFICANT WEATHER AND/OR OBSTRUCTIONS TO VISIBILITY.

WYZ001-180200-
YELLOWSTONE NATIONAL PARK

CITY           SKY/WX    TMP DP  RH WIND       PRES   REMARKS
LK YELLOWSTONE   N/A     66  32  28 VRB5      30.32S
W YELLOWSTONE  NOT AVBL

$$
WYZ002>013-054>058-071-098>099-180200-
NORTHERN WYOMING

CITY           SKY/WX    TMP DP  RH WIND       PRES   REMARKS
JACKSON        FAIR      72  32  23 NW10      30.23R
CODY           FAIR      71  44  37 N7        30.10S
GREYBULL       FAIR      84  34  16 N10       29.98S HAZE
WORLAND        FAIR      81  44  27 NE6       30.00S
SHERIDAN       FAIR      76  47  35 CALM      30.02S
BUFFALO        FAIR      76  36  23 NW5       30.10S
GILLETTE       FAIR      74  43  32 CALM      30.03S
HULETT         FAIR      73  45  35 CALM      30.03S
NEWCASTLE      FAIR      72  43  35 N7        30.03S

$$
WYZ014>020-022>026-101>103-180200-
CENTRAL WYOMING

CITY           SKY/WX    TMP DP  RH WIND       PRES   REMARKS
BIG PINEY      FAIR      73  30  20 NW15      30.25S
PINEDALE       FAIR      72  27  18 W14G21    30.26S
DUBOIS         FAIR      70  28  21 N16G23    30.23S
LANDER           N/A    N/A N/A N/A MISG      30.06S
RIVERTON       FAIR      82  28  14 NW15      30.07S
CASPER         FAIR      76  41  28 E18G26    30.08R
DOUGLAS        MOCLDY    73  44  35 NE6       30.10R

$$
WYZ021-027>030-104>119-180200-
SOUTHERN WYOMING

CITY           SKY/WX    TMP DP  RH WIND       PRES   REMARKS
EVANSTON       FAIR      75  36  24 W18       30.28F
KEMMERER         N/A    N/A N/A N/A W15G23    30.28S
FORT BRIDGER   FAIR      77  32  19 W15G24    30.29S
ROCK SPRINGS   FAIR      77  28  16 NW15G25   30.21S
RAWLINS        FAIR      77  30  17 W15G25    30.18F
SARATOGA       FAIR      73  34  23 SW18      30.23S
LARAMIE        FAIR      73  34  23 W21       30.22S
CHEYENNE       FAIR      77  35  21 NW9G21    30.14S
TORRINGTON     FAIR      76  46  34 N20G26    29.99R
PINE BLUFFS    FAIR      75  45  33 S3        30.07S

$$




USA.gov is the U.S. government's official web portal to all federal, state and local government web resources and services.